Hutchinson, MN

2:42 PM CDT on May 21, 2018 (GMT -0500)
Hutchinson Municipal-Butler

Weather History for KHCD - March, 2013

Change the Weather History Date:

Saturday, March 2, 2013

  Actual Average Record
Temperature  
Mean Temperature 10 °F -  
Max Temperature 23 °F 35 °F 60 °F (1990)
Min Temperature -3 °F 15 °F -19 °F (2014)
Degree Days  
Heating Degree Days 55    
Moisture  
Dew Point 12 °F    
Average Humidity 85    
Maximum Humidity 94    
Minimum Humidity 74    
Precipitation  
Precipitation 0.00 in - - ()
Sea Level Pressure  
Sea Level Pressure 30.25 in    
Wind  
Wind Speed 3 mph (ESE)    
Max Wind Speed 7 mph    
Max Gust Speed -    
Visibility 10 miles    
Events      
Averages and records for this station are not official NWS values.
T = Trace of Precipitation, MM = Missing Value Source: NWS Daily Summary

Daily Weather History Graph

Daily Weather History Graph

Search for Another Location

Airport or City:

Astronomy

Mar. 02, 2013 Rise Set
Actual Time 6:52 AM CST 6:06 PM CST
Civil Twilight 6:23 AM CST 6:36 PM CST
Nautical Twilight 5:49 AM CST 7:10 PM CST
Astronomical Twilight 5:15 AM CST 7:44 PM CST
Moon No Moon Rise 9:06 AM CST (3/2)
Length of Visible Light 12h 12m
Length of Day
11h 13m
Waning Gibbous, 74% of the Moon is Illuminated
Mar 2
Waning Gibbous
Mar 4
Last Quarter
Mar 11
New
Mar 19
First Quarter
Mar 27
Full

Hourly Weather History & Observations

Time (CST) Temp. Windchill Dew Point Humidity Pressure Visibility Wind Dir Wind Speed Gust Speed Precip Events Conditions
12:14 AM 16.7 °F 9.6 °F 12.6 °F 84% 30.32 in 10.0 mi NNE 4.6 mph - N/A   Clear
12:34 AM 9.1 °F - 5.5 °F 85% 30.32 in 10.0 mi Calm Calm - N/A   Clear
12:54 AM 9.1 °F 2.6 °F 7.2 °F 92% 30.32 in 10.0 mi NW 3.5 mph - N/A   Clear
1:14 AM 9.1 °F - 7.0 °F 91% 30.32 in 10.0 mi Calm Calm - N/A   Clear
1:34 AM 9.1 °F 0.8 °F 6.8 °F 90% 30.33 in 10.0 mi NW 4.6 mph - N/A   Clear
1:54 AM 9.1 °F - 7.0 °F 91% 30.32 in 10.0 mi Calm Calm - N/A   Clear
2:14 AM 6.3 °F - 4.3 °F 92% 30.32 in 10.0 mi Calm Calm - N/A   Clear
2:34 AM 2.1 °F - -0.0 °F 91% 30.31 in 10.0 mi Calm Calm - N/A   Clear
2:53 AM 1.9 °F -5.6 °F -0.2 °F 91% 30.32 in 10.0 mi NW 3.5 mph - N/A   Clear
3:14 AM 0.9 °F -6.9 °F -1.3 °F 91% 30.32 in 10.0 mi NW 3.5 mph - N/A   Clear
3:34 AM 2.5 °F -5.0 °F 0.5 °F 91% 30.32 in 10.0 mi NNW 3.5 mph - N/A   Clear
3:54 AM 3.2 °F -4.2 °F 1.4 °F 92% 30.33 in 10.0 mi NW 3.5 mph - N/A   Clear
4:14 AM 9.0 °F 2.4 °F 7.2 °F 92% 30.30 in 10.0 mi NE 3.5 mph - N/A   Clear
4:34 AM 2.7 °F -4.8 °F 0.1 °F 89% 30.31 in 10.0 mi NNW 3.5 mph - N/A   Clear
5:14 AM 1.0 °F -6.7 °F -0.8 °F 92% 30.31 in 10.0 mi NW 3.5 mph - N/A   Clear
6:34 AM -0.8 °F - -2.7 °F 91% 30.32 in 10.0 mi Calm Calm - N/A   Clear
6:54 AM -3.1 °F - -5.1 °F 91% 30.32 in 10.0 mi Calm Calm - N/A   Clear
7:14 AM -1.1 °F - -3.3 °F 91% 30.32 in 10.0 mi Calm Calm - N/A   Clear
7:34 AM -0.8 °F - -2.9 °F 91% 30.32 in 10.0 mi Calm Calm - N/A   Clear
7:53 AM 0.3 °F - -2.2 °F 89% 30.31 in 1.8 mi Calm Calm - N/A   Unknown
8:14 AM 9.1 °F -1.9 °F 7.7 °F 94% 30.31 in 7.0 mi NE 6.9 mph - N/A   Clear
8:34 AM 11.7 °F 3.7 °F 9.9 °F 92% 30.31 in 10.0 mi ENE 4.6 mph - N/A   Clear
8:54 AM 11.8 °F 5.7 °F 10.0 °F 92% 30.30 in 10.0 mi ENE 3.5 mph - N/A   Clear
9:14 AM 11.7 °F 2.3 °F 9.5 °F 91% 30.30 in 10.0 mi East 5.8 mph - N/A   Clear
9:34 AM 14.0 °F 6.5 °F 11.8 °F 91% 30.30 in 10.0 mi East 4.6 mph - N/A   Clear
9:52 AM 14.0 °F 8.2 °F 11.7 °F 90% 30.30 in 10.0 mi East 3.5 mph - N/A   Clear
10:14 AM 14.0 °F - 11.3 °F 89% 30.30 in 10.0 mi Calm Calm - N/A   Clear
10:34 AM 16.7 °F - 13.1 °F 86% 30.29 in 10.0 mi Calm Calm - N/A   Clear
10:50 AM 16.7 °F - 13.1 °F 86% 30.30 in 10.0 mi Calm Calm - N/A   Clear
11:13 AM 17.2 °F - 13.1 °F 84% 30.30 in 10.0 mi Calm Calm - N/A   Clear
11:30 AM 19.2 °F 14.1 °F 14.7 °F 83% 30.30 in 10.0 mi SE 3.5 mph - N/A   Clear
11:55 AM 19.4 °F - 14.0 °F 80% 30.29 in 10.0 mi Calm Calm - N/A   Clear
12:15 PM 19.4 °F - 14.0 °F 80% 30.28 in 10.0 mi Calm Calm - N/A   Clear
12:35 PM 19.4 °F - 15.8 °F 86% 30.27 in 10.0 mi Calm Calm - N/A   Clear
12:55 PM 19.4 °F 14.3 °F 15.8 °F 86% 30.26 in 10.0 mi SE 3.5 mph - N/A   Clear
1:15 PM 21.2 °F - 15.8 °F 80% 30.25 in 10.0 mi Calm Calm - N/A   Clear
1:35 PM 21.2 °F - 15.8 °F 80% 30.25 in 10.0 mi Calm Calm - N/A   Clear
1:46 PM 21.7 °F 17.0 °F 16.3 °F 80% 30.24 in 10.0 mi ESE 3.5 mph - N/A   Clear
1:54 PM 21.7 °F 15.5 °F 15.8 °F 78% 30.24 in 10.0 mi ESE 4.6 mph - N/A   Clear
2:13 PM 21.9 °F 17.2 °F 15.8 °F 77% 30.24 in 10.0 mi SE 3.5 mph - N/A   Clear
2:20 PM 21.9 °F 15.7 °F 15.8 °F 77% 30.23 in 10.0 mi SSE 4.6 mph - N/A   Clear
2:55 PM 23.0 °F - 15.8 °F 74% 30.23 in 10.0 mi Calm Calm - N/A   Clear
3:15 PM 23.0 °F 18.4 °F 17.6 °F 80% 30.22 in 10.0 mi South 3.5 mph - N/A   Clear
3:35 PM 23.0 °F 17.0 °F 17.6 °F 80% 30.21 in 10.0 mi SE 4.6 mph - N/A   Clear
3:55 PM 23.0 °F 15.8 °F 15.8 °F 74% 30.21 in 10.0 mi SE 5.8 mph - N/A   Clear
4:15 PM 21.2 °F 14.9 °F 15.8 °F 80% 30.21 in 10.0 mi SE 4.6 mph - N/A   Scattered Clouds
4:35 PM 21.2 °F 16.4 °F 17.6 °F 86% 30.21 in 10.0 mi SE 3.5 mph - N/A   Overcast
4:55 PM 21.2 °F 16.4 °F 15.8 °F 80% 30.20 in 10.0 mi SE 3.5 mph - N/A   Overcast
5:15 PM 23.0 °F 18.4 °F 15.8 °F 74% 30.19 in 10.0 mi SE 3.5 mph - N/A   Overcast
5:35 PM 21.2 °F 16.4 °F 15.8 °F 80% 30.18 in 10.0 mi SE 3.5 mph - N/A   Scattered Clouds
5:54 PM 21.7 °F 17.0 °F 17.2 °F 83% 30.19 in 10.0 mi ESE 3.5 mph - N/A   Mostly Cloudy
6:14 PM 21.7 °F 17.0 °F 17.6 °F 84% 30.19 in 10.0 mi ESE 3.5 mph - N/A   Overcast
6:34 PM 21.7 °F 17.0 °F 17.4 °F 83% 30.19 in 10.0 mi East 3.5 mph - N/A   Overcast
6:54 PM 22.1 °F 17.4 °F 17.2 °F 82% 30.19 in 10.0 mi East 3.5 mph - N/A   Overcast
7:14 PM 22.1 °F 17.4 °F 17.1 °F 81% 30.18 in 10.0 mi East 3.5 mph - N/A   Overcast
7:34 PM 22.1 °F 15.9 °F 17.2 °F 82% 30.18 in 10.0 mi East 4.6 mph - N/A   Overcast
7:52 PM 22.6 °F 18.0 °F 17.4 °F 80% 30.18 in 10.0 mi East 3.5 mph - N/A   Overcast
8:14 PM 22.5 °F 17.8 °F 17.4 °F 81% 30.18 in 10.0 mi East 3.5 mph - N/A   Overcast
8:32 PM 22.1 °F 17.4 °F 17.6 °F 83% 30.18 in 10.0 mi SE 3.5 mph - N/A   Overcast
8:54 PM 22.1 °F 14.7 °F 17.2 °F 82% 30.17 in 10.0 mi ESE 5.8 mph - N/A   Overcast
9:14 PM 22.1 °F 17.4 °F 17.4 °F 82% 30.17 in 10.0 mi ESE 3.5 mph - N/A   Overcast
9:34 PM 22.1 °F 15.9 °F 17.1 °F 81% 30.17 in 10.0 mi ESE 4.6 mph - N/A   Overcast
9:54 PM 22.1 °F 14.7 °F 16.9 °F 80% 30.15 in 10.0 mi SE 5.8 mph - N/A   Overcast
10:14 PM 22.1 °F 15.9 °F 17.1 °F 81% 30.16 in 10.0 mi SE 4.6 mph - N/A   Overcast
10:34 PM 22.3 °F 17.6 °F 17.2 °F 81% 30.15 in 10.0 mi SE 3.5 mph - N/A   Overcast
10:54 PM 22.1 °F 14.7 °F 18.0 °F 84% 30.15 in 10.0 mi ESE 5.8 mph - N/A   Overcast
11:14 PM 22.5 °F 14.1 °F 17.6 °F 82% 30.14 in 10.0 mi ESE 6.9 mph - N/A   Overcast
11:34 PM 22.8 °F 15.5 °F 18.1 °F 82% 30.13 in 10.0 mi ESE 5.8 mph - N/A   Overcast
11:54 PM 23.0 °F 14.7 °F 18.9 °F 84% 30.12 in 10.0 mi SE 6.9 mph - N/A   Overcast